CAPE
45 76 144 32 0 0 0 0 0 0 0 0 0 0 0 6 87 241 229 377 502 490 306 382 563 915 1260 1052 996 964 839 654 617 642 605 460 422 255 647 764 645 634 824
0 0 164 144 127 80 0 0 0 0 0 0 7 53 165 426 341 275 256 169 538 869 537 297 291 533 951 930 839 1014 1021 890 660 586 624 613 418 243 205 464 135 343 566
0 0 19 208 170 223 124 11 10 58 467 360 401 394 378 521 476 564 443 234 225 636 875 588 88 343 299 289 421 894 621 454 396 342 313 337 340 290 91 85 89 100 511
0 0 0 0 107 136 176 190 175 210 343 342 255 148 370 509 471 473 466 431 313 331 1083 818 208 198 455 231 583 548 898 465 294 144 94 118 236 214 163 149 51 72 352
0 0 0 0 19 103 259 351 477 485 474 404 616 482 599 414 244 314 219 406 447 482 591 728 494 475 484 429 706 1082 842 550 439 67 4 88 88 276 338 153 83 81 72
0 0 0 0 13 196 237 347 409 472 646 643 613 592 245 76 25 3 119 413 526 562 521 342 340 546 717 575 733 1070 1008 787 416 359 192 57 111 134 434 188 73 174 277
0 0 0 0 5 171 463 408 464 516 496 651 486 131 41 10 21 39 109 311 458 499 440 488 398 393 446 517 834 840 1191 1280 679 714 350 326 223 146 68 366 284 95 85
0 0 0 0 0 200 450 504 536 571 615 576 482 192 75 53 51 101 36 0 0 46 336 385 473 617 614 565 564 944 871 537 566 737 576 387 421 198 47 145 188 198 156
0 0 0 12 244 381 648 675 840 831 569 397 472 404 116 57 93 26 14 0 11 0 10 189 590 836 794 702 831 887 1082 668 411 526 598 538 420 361 206 127 21 206 169
0 5 195 451 674 754 914 877 1043 1054 995 584 359 419 346 292 179 127 109 30 109 0 0 35 230 713 609 801 870 953 960 797 685 705 810 809 817 584 587 467 248 160 135
74 297 511 939 662 584 675 271 244 619 889 666 586 321 226 186 232 256 81 124 113 0 43 305 755 1105 937 877 1021 1040 1128 1044 593 516 746 419 884 1032 1011 811 680 521 153
431 713 613 415 167 142 202 1 0 378 269 592 717 475 408 353 254 260 226 169 139 0 15 45 185 340 592 908 875 837 862 886 351 153 10 43 500 919 1316 1405 1078 886 440
940 503 146 53 7 0 0 9 131 104 501 680 630 509 385 360 370 300 200 188 34 0 12 1 25 115 421 666 412 778 720 527 625 744 769 505 453 781 1369 1290 1033 1172 1215
1070 483 48 63 80 110 108 163 658 605 626 454 435 335 309 302 237 142 164 148 151 38 19 1 0 90 65 242 497 644 478 405 424 467 681 694 808 659 664 839 914 726 695
710 849 435 600 405 469 724 812 519 357 240 146 109 85 103 50 65 134 122 113 120 156 78 19 112 77 19 405 575 370 246 64 171 210 241 300 435 521 441 553 681 769 799
713 722 625 572 517 426 389 262 30 0 0 0 0 0 0 0 0 0 51 70 96 109 198 38 186 45 0 252 400 7 0 0 0 2 4 0 64 205 320 408 425 510 594
330 294 190 102 40 10 0 0 0 0 0 0 0 0 0 0 0 0 0 0 0 13 117 104 19 0 0 0 0 0 0 0 0 0 0 0 0 2 6 20 13 44 102
14 1 0 0 0 0 0 0 0 0 0 0 0 0 0 0 0 0 0 0 0 0 0 2 0 0 0 0 0 0 0 0 0 0 0 0 0 0 0 0 0 0 0
0 0 0 0 0 0 0 0 0 0 0 0 0 0 0 0 0 0 0 0 0 0 0 0 0 0 0 0 0 0 0 0 0 0 0 0 0 0 0 0 0 0 0
0 0 0 0 0 0 0 0 0 0 0 0 0 0 0 0 0 0 0 0 0 0 0 0 0 0 0 0 0 0 0 0 0 0 0 0 0 0 0 0 0 0 0
0 0 0 0 0 0 0 0 0 0 0 0 0 0 0 0 0 0 0 0 0 0 0 0 0 0 0 0 0 0 0 0 0 0 0 0 0 0 0 0 0 0 0
0 0 0 0 0 0 0 0 0 0 0 0 0 0 0 0 0 0 0 0 0 0 0 0 0 0 0 0 0 0 0 0 0 0 0 0 0 0 0 0 0 0 0
0 0 0 0 0 0 0 0 0 0 0 0 0 0 0 0 0 0 0 0 0 0 0 0 0 0 0 0 0 0 0 0 0 0 0 0 0 0 0 0 0 0 0
0 0 0 0 0 0 0 0 0 0 0 0 0 0 0 0 0 0 0 0 0 0 0 0 0 0 0 0 0 0 0 0 0 5 0 0 0 0 2 25 6 0 0
0 0 0 0 0 0 0 0 0 0 0 0 0 0 0 0 0 0 0 0 0 0 0 0 0 0 0 0 0 0 0 0 0 0 1 0 0 0 0 0 0 0 0
0 0 0 0 0 0 0 0 0 0 0 0 0 0 0 0 0 0 0 0 0 0 0 0 0 0 0 0 0 0 0 0 0 0 0 0 0 0 0 0 0 0 0
CIN
-66 -53 -43 -21 0 0 0 0 0 0 0 0 0 0 0 -23 -52 -67 -68 -71 -81 -78 -77 -68 -44 -13 0 0 0 0 0 0 0 0 0 -3 -4 -7 -2 -2 -3 -3 0
0 0 -54 -55 -65 -80 0 0 0 0 0 0 -87 -66 -58 -41 -43 -52 -76 -97 -72 -74 -78 -74 -53 -19 -1 0 0 0 0 0 0 -1 0 0 -10 -8 -8 -2 -14 -4 -4
0 0 -25 -51 -62 -70 -67 -73 -62 -62 -43 -54 -38 -44 -48 -41 -50 -50 -70 -121 -135 -84 -76 -86 -113 -58 -36 -46 -47 -2 -2 -2 -9 -3 -6 -1 -3 -7 -25 -21 -17 -18 -4
0 0 0 0 -92 -68 -65 -60 -53 -32 -36 -44 -59 -83 -57 -51 -52 -59 -84 -112 -132 -95 -68 -77 -110 -111 -82 -50 -25 -17 0 -4 0 -4 -9 -3 -1 -3 -13 -16 -23 -12 -3
0 0 0 0 -111 -79 -56 -48 -41 -40 -40 -43 -55 -61 -54 -41 -51 -76 -85 -96 -116 -116 -108 -105 -110 -95 -51 -46 -23 -2 -1 -7 0 -24 -19 -18 -12 -1 -8 -14 -21 -20 -18
0 0 0 0 -104 -69 -52 -49 -42 -50 -42 -42 -49 -48 -50 -68 -95 -68 -89 -95 -112 -104 -126 -138 -136 -109 -64 -34 -27 -16 -6 -1 -4 -1 -6 -26 -23 -10 -1 -6 -22 -10 -3
0 0 0 0 -99 -59 -47 -50 -52 -44 -45 -40 -55 -60 -72 -97 -79 -83 -92 -93 -97 -106 -132 -134 -137 -132 -123 -96 -56 -56 -35 -3 -6 0 -8 -4 -13 -10 0 -4 -3 -14 -13
0 0 0 0 0 -50 -40 -47 -46 -42 -58 -52 -35 -78 -58 -62 -92 -74 -89 0 0 -97 -119 -134 -132 -117 -119 -122 -105 -74 -35 -24 -15 -3 0 -16 -11 -10 -26 -3 -3 -6 -8
0 0 0 -86 -79 -77 -60 -54 -34 -35 -47 -62 -45 -23 -48 -62 -81 -96 -67 0 -46 0 -27 -104 -115 -115 -125 -121 -107 -89 -51 -16 -16 -9 -13 -28 -29 -25 -14 -14 -56 -8 -13
0 -133 -115 -102 -93 -77 -70 -73 -59 -42 -40 -33 -38 -30 -41 -26 -40 -81 -81 -71 -87 0 0 -86 -92 -97 -112 -119 -91 -71 -62 -12 -7 -17 -26 -14 -12 -24 -19 -11 -21 -24 -19
-174 -140 -134 -101 -108 -102 -87 -117 -126 -87 -54 -45 -23 -35 -41 -46 -55 -29 -96 -88 -85 0 -84 -102 -110 -81 -89 -91 -76 -73 -53 -23 -17 -44 -28 -38 -16 -10 -7 -7 -12 -21 -36
-127 -127 -162 -168 -167 -142 -112 -59 0 -125 -116 -49 -30 -33 -42 -20 -27 -22 -27 -38 -39 0 -63 -113 -113 -116 -117 -84 -74 -75 -62 -48 -83 -106 -180 -133 -52 -6 -4 0 -2 -7 -22
-94 -155 -216 -183 -268 0 0 -93 -190 -210 -101 -46 -44 -40 -52 -42 -34 -34 -30 -24 -18 0 -49 -34 -162 -139 -131 -96 -98 -80 -78 -78 -67 -49 -50 -50 -45 -31 -14 -7 -8 -1 0
-66 -122 -262 -210 -212 -200 -135 -138 -108 -100 -54 -57 -86 -51 -51 -46 -47 -47 -28 -26 -26 -82 -130 -21 0 -117 -151 -132 -103 -89 -113 -124 -98 -91 -70 -68 -52 -41 -24 -11 -9 -11 -10
-124 -117 -192 -149 -175 -147 -88 -59 -81 -85 -79 -92 -96 -114 -104 -124 -136 -81 -101 -88 -53 -15 -56 -157 -68 -125 -172 -88 -85 -116 -145 -200 -154 -151 -142 -129 -100 -78 -61 -51 -33 -18 -7
-168 -158 -164 -157 -121 -107 -92 -115 -90 0 0 0 0 0 0 0 0 -62 -231 -152 -91 -46 -18 -168 -81 -195 0 -123 -94 -81 0 0 0 -71 -140 -10 -217 -142 -115 -97 -94 -71 -44
-216 -247 -233 -228 -262 -80 0 0 0 0 0 0 0 0 0 0 0 0 0 0 0 -76 -67 -96 -218 0 0 0 0 0 0 0 0 0 0 0 0 -46 -74 -214 -173 -161 -140
-452 -20 0 0 0 0 0 0 0 0 0 0 0 0 0 0 0 0 0 0 0 0 0 0 0 0 0 0 0 0 0 0 0 0 0 0 0 0 0 0 0 0 0
0 0 0 0 0 0 0 0 0 0 0 0 0 0 0 0 0 0 0 0 0 0 0 0 0 0 0 0 0 0 0 0 0 0 0 0 0 0 0 0 0 0 0
0 0 0 0 0 0 0 0 0 0 0 0 0 0 0 0 0 0 0 0 0 0 0 0 0 0 0 0 0 0 0 0 0 0 0 0 0 0 0 0 0 0 0
0 0 0 0 0 0 0 0 0 0 0 0 0 0 0 0 0 0 0 0 0 0 0 0 0 0 0 0 0 0 0 0 0 0 0 0 0 0 0 0 0 0 0
0 0 0 0 0 0 0 0 0 0 0 0 0 0 0 0 0 0 0 0 0 0 0 0 0 0 0 0 0 0 0 0 0 0 0 0 0 0 0 0 0 0 0
0 0 0 0 0 0 0 0 0 0 0 0 0 0 0 0 0 0 0 0 0 0 0 0 0 0 0 0 0 0 0 0 0 0 0 0 0 0 0 0 0 0 0
0 0 0 0 0 0 0 0 0 0 0 0 0 0 0 0 0 0 0 0 0 0 0 0 0 0 0 0 0 0 0 0 0 -40 0 0 0 0 -23 -34 -122 -70 0
0 0 0 0 0 0 0 0 0 0 0 0 0 0 0 0 0 0 0 0 0 0 0 0 0 0 0 0 0 0 0 0 0 0 -14 0 0 0 0 0 0 0 0
0 0 0 0 0 0 0 0 0 0 0 0 0 0 0 0 0 0 0 0 0 0 0 0 0 0 0 0 0 0 0 0 0 -2 -5 0 0 0 0 0 0 0 0
Wind_Speed
10 13 17 20 20 19 18 18 17 18 18 18 18 17 16 11 10 9 9 11 9 11 11 11 9 8 12 15 14 14 12 13 14 15 16 16 16 13 14 12 9 11 11
11 14 14 16 18 19 17 18 17 16 17 18 17 13 14 6 5 5 6 7 7 8 10 8 9 5 3 10 16 15 12 10 10 14 13 13 13 13 15 13 10 9 10
14 14 15 15 16 18 18 18 17 19 18 15 17 24 24 26 3 2 2 6 5 7 8 7 3 8 3 5 8 11 9 7 12 16 16 14 10 12 11 12 8 7 8
17 17 17 16 17 18 19 19 19 21 10 26 25 23 20 22 20 6 3 4 3 5 4 7 8 7 14 10 10 13 9 10 16 12 9 15 16 20 15 10 8 7 9
18 18 19 19 19 20 21 22 23 25 26 27 28 23 9 15 5 15 6 5 5 5 4 4 8 7 9 13 7 10 11 12 15 13 11 15 22 24 15 11 9 10 10
21 20 21 21 22 23 23 24 24 24 24 27 27 28 25 21 20 20 14 11 9 7 7 5 3 3 8 8 9 8 9 10 6 13 13 17 20 19 16 12 10 10 11
22 23 23 23 24 25 25 25 24 25 26 23 24 27 22 16 18 25 18 16 11 8 5 4 3 2 4 6 6 10 9 12 8 13 14 14 19 15 13 13 11 11 12
24 24 25 26 26 26 26 25 24 23 20 21 23 23 23 24 17 21 19 20 21 14 7 5 2 1 3 4 3 5 11 10 12 11 18 10 8 9 12 15 9 10 11
26 27 27 26 26 25 26 24 22 21 24 24 19 21 23 21 29 18 20 18 27 21 17 7 2 3 2 3 4 2 3 6 9 13 9 5 10 11 14 7 12 12 14
26 25 24 24 25 22 23 23 24 24 22 28 25 20 13 16 18 20 20 18 29 27 27 17 6 4 3 5 6 5 7 3 2 6 4 7 7 9 10 10 8 11 14
23 22 22 17 15 19 17 20 23 25 23 25 26 21 14 17 16 15 17 15 16 28 28 25 20 16 10 8 7 7 5 6 17 18 6 10 6 3 4 5 6 7 11
20 20 10 14 15 15 18 22 23 24 26 10 10 14 17 17 19 19 19 20 21 25 22 23 23 23 17 12 11 11 15 17 15 17 10 13 28 12 7 8 7 6 7
17 10 14 14 11 9 14 19 23 24 25 18 19 19 19 18 18 18 18 19 20 20 17 20 25 26 23 17 16 15 19 22 23 28 26 24 27 23 11 5 13 10 10
14 16 15 13 7 23 20 23 24 22 18 20 21 20 20 21 22 21 19 18 20 18 16 18 19 26 26 24 20 21 23 26 27 27 26 25 25 23 21 16 13 13 13
16 17 16 18 20 23 22 20 20 19 20 21 21 20 21 22 22 22 21 18 17 17 15 16 21 26 27 23 23 22 24 27 28 28 28 27 26 24 22 22 22 23 21
15 17 20 21 19 20 19 19 19 19 20 21 21 21 22 22 22 22 22 20 18 14 13 17 21 25 26 24 24 24 24 26 29 28 28 28 26 26 25 24 24 25 26
15 18 19 19 19 19 19 19 19 20 21 20 21 21 22 22 22 23 23 22 21 18 16 17 21 24 24 24 24 23 23 25 27 29 28 27 26 25 24 24 24 25 26
17 17 18 19 20 20 20 20 21 22 21 22 22 22 23 23 24 24 24 24 23 22 18 20 22 24 24 23 22 23 23 25 25 27 27 26 25 25 25 24 25 26 27
16 17 18 19 20 21 22 22 22 22 22 22 23 23 24 24 25 25 26 26 26 25 24 22 22 23 23 24 23 22 24 24 25 26 25 25 24 23 24 24 24 23 24
18 19 20 20 21 21 21 22 22 22 22 23 23 23 24 25 26 26 27 27 26 26 26 26 25 25 24 24 25 27 28 26 25 28 27 26 24 24 23 23 25 26 26
19 20 21 22 22 22 22 21 21 21 22 22 23 24 24 24 26 26 27 27 26 27 27 27 28 28 29 29 30 28 28 27 24 29 28 27 27 26 24 24 26 27 27
20 20 21 22 23 22 22 21 21 21 22 22 23 24 25 25 24 25 26 26 26 27 28 28 29 29 30 29 29 30 31 29 27 30 29 26 28 27 27 24 26 26 27
20 20 20 21 22 22 22 22 22 22 22 22 23 23 24 25 25 24 25 25 26 27 28 28 29 29 29 29 30 32 32 29 26 28 28 27 28 30 27 25 26 28 28
19 19 19 20 21 22 22 23 23 23 23 23 23 24 25 27 27 26 24 24 26 28 28 27 26 26 26 27 29 28 27 28 25 25 28 28 30 29 27 23 27 28 29
18 18 18 19 19 20 21 22 23 24 24 23 23 24 25 25 25 25 26 26 27 28 28 29 28 29 29 26 28 31 32 31 29 26 27 27 28 28 24 25 28 30 32
18 18 18 18 18 19 19 20 20 21 22 22 22 23 25 24 24 24 25 26 27 28 29 30 30 30 31 31 31 30 29 30 28 27 26 29 26 26 25 25 30 31 35
Wind_Direction
270 266 242 221 205 200 203 212 218 229 238 239 236 227 228 203 201 194 194 194 184 183 179 181 172 170 183 193 191 187 181 181 184 188 190 188 187 182 178 176 177 169 165
271 259 270 259 249 229 213 216 217 219 231 238 236 222 225 184 168 162 195 188 184 182 184 184 187 175 170 190 202 197 188 183 186 190 190 188 190 190 186 185 186 186 179
266 268 272 274 280 274 253 275 246 244 241 234 245 270 265 275 76 113 100 185 171 184 187 187 175 204 225 210 203 203 198 200 198 198 196 194 192 189 190 190 204 216 200
267 266 267 283 284 274 263 261 270 346 243 287 280 271 261 265 247 202 71 72 101 143 135 196 197 201 201 198 200 206 212 209 198 201 296 202 198 194 188 197 205 236 216
269 272 268 277 282 281 276 289 294 307 304 300 297 273 238 2 46 7 50 82 86 108 83 116 183 181 194 196 199 207 211 206 199 198 187 197 200 201 193 198 212 201 215
257 263 264 277 281 287 292 306 312 329 335 314 322 309 295 2 9 8 30 40 41 47 45 58 100 153 187 194 207 212 212 213 223 209 201 199 200 200 199 198 207 210 203
255 256 268 275 277 281 276 296 322 326 322 346 349 319 347 21 15 4 19 25 31 33 34 35 55 98 170 197 208 215 218 210 217 212 208 202 205 206 215 203 201 203 206
257 260 265 267 273 286 294 305 323 334 349 356 352 352 347 345 11 6 17 15 13 29 37 24 52 136 194 207 216 219 221 220 221 218 217 214 237 229 210 210 234 213 210
254 260 259 258 262 294 294 314 333 340 331 337 360 354 349 350 332 6 7 13 351 9 18 46 149 138 26 202 209 216 214 220 222 217 213 228 211 211 208 225 201 208 203
249 243 237 245 253 309 315 319 321 325 334 319 336 353 13 7 3 357 358 4 339 348 345 14 50 76 109 130 167 176 200 125 146 200 174 186 200 202 206 211 213 212 209
231 225 228 207 343 329 341 334 323 320 333 327 327 348 15 5 9 9 4 13 262 320 331 348 4 25 63 100 96 91 132 66 3 353 30 355 348 246 258 257 232 264 213
222 220 36 354 357 349 344 332 328 321 309 327 23 14 4 3 356 358 360 2 5 354 2 357 352 339 13 45 54 61 36 22 25 9 10 353 312 331 317 309 293 265 251
218 122 173 173 164 187 219 268 295 301 306 358 354 359 2 4 6 6 7 5 7 11 18 16 1 356 7 19 21 25 10 356 347 321 330 329 319 325 334 306 310 299 290
181 179 195 196 155 337 327 306 321 341 2 357 351 358 358 355 356 0 8 9 5 16 23 11 16 354 351 357 3 0 353 344 342 336 337 337 331 328 329 329 323 313 304
198 234 231 258 266 314 345 356 356 360 358 355 357 357 356 351 353 358 1 11 19 17 22 21 2 354 350 1 2 3 356 350 348 345 340 337 331 328 327 323 318 312 311
242 272 321 346 0 1 5 11 13 8 5 357 358 356 352 352 354 355 5 13 19 27 28 12 1 353 349 354 354 354 352 352 350 349 347 342 337 331 325 322 319 312 308
62 12 20 21 22 22 25 24 20 15 9 7 3 6 4 4 1 359 1 5 9 15 13 12 5 1 360 359 359 2 3 1 357 353 351 348 345 342 335 331 323 319 317
43 55 52 46 45 48 47 47 43 34 30 22 17 14 9 10 8 6 8 7 7 8 15 7 4 2 2 6 9 7 5 1 358 356 355 354 352 347 343 337 329 322 318
71 67 66 62 60 59 54 49 50 49 43 38 30 22 15 15 14 15 14 13 15 16 16 15 14 14 14 12 10 11 4 1 0 357 355 355 354 353 350 346 342 337 332
70 69 63 55 58 60 60 60 53 49 45 36 31 29 28 23 21 18 18 17 17 19 20 19 17 16 17 18 15 8 1 2 0 356 358 357 353 351 350 348 342 336 331
71 66 62 61 62 64 69 67 60 52 47 43 38 35 31 31 24 20 19 19 21 21 19 15 13 12 9 9 5 8 5 2 3 354 352 353 352 352 348 344 342 339 334
78 73 69 67 67 67 66 64 63 58 52 46 40 36 32 27 27 23 25 25 24 20 16 13 12 12 9 11 13 10 4 1 359 354 352 353 353 348 346 346 342 341 338
80 76 75 71 69 70 71 68 66 62 54 48 42 38 33 27 25 28 26 25 23 22 22 21 16 17 15 19 13 8 8 9 4 359 357 353 354 349 349 348 345 340 336
83 77 76 77 74 73 71 68 67 62 57 54 49 42 35 30 29 27 28 27 21 17 19 24 23 23 22 19 15 13 11 9 10 9 4 356 353 351 356 357 349 342 336
84 82 84 88 87 84 78 75 72 67 65 63 55 45 35 30 34 35 33 31 25 20 20 24 27 24 20 18 16 10 7 5 4 4 5 359 356 355 358 357 349 344 336
90 88 86 91 102 97 90 81 75 71 65 63 54 42 31 32 33 38 35 30 20 19 16 16 16 17 16 15 14 13 11 4 3 1 4 357 357 359 352 353 347 344 338